Vertical_Velocity
0 0 0 0 0 0 -0 -2 -3 -3 -3 -3 -4 -5 -6 -5 -6 -6 -5 -2 -2 -3 -3 -3 -2 -1 -0 1 2 2 3 3 3 3 4 4 3 2 1 0 0 0 1 1 2 2 3 3 3 3 3 5 7 7 7 5 4 3 2 3 2 2 3 4 3 2 2 1 -1
0 0 0 0 -1 -1 -1 -2 -3 -4 -4 -5 -3 -4 -5 -6 -5 -5 -5 -3 -2 -2 -2 -4 -3 -2 -1 -1 0 1 1 2 2 3 3 4 4 5 4 3 2 2 2 3 3 4 4 4 4 5 6 6 5 3 2 2 4 5 5 4 4 4 5 5 4 3 3 2 -0
-0 -0 -0 -1 -1 -2 -2 -3 -3 -3 -4 -4 -4 -4 -4 -6 -5 -5 -5 -4 -3 -2 -2 -3 -4 -4 -3 -2 -3 -2 -2 -2 -2 -1 -1 -1 0 2 3 4 4 4 4 4 3 3 4 5 5 5 4 3 3 3 3 2 4 5 5 3 3 4 4 2 1 1 1 1 1
-1 -1 -1 -2 -1 -1 -1 -1 -2 -2 -2 -2 -3 -4 -4 -5 -5 -5 -4 -4 -4 -3 -3 -3 -5 -6 -5 -4 -4 -5 -5 -6 -6 -6 -5 -6 -5 -4 -2 -1 1 2 2 3 2 1 1 4 5 5 5 5 5 5 4 2 3 4 3 2 3 3 2 1 1 3 4 3 3
-3 -2 -2 -1 -1 -1 -0 0 -0 -1 -2 -1 -1 -2 -4 -4 -5 -5 -5 -5 -4 -4 -3 -3 -4 -5 -7 -6 -6 -6 -6 -7 -8 -9 -9 -8 -8 -7 -5 -4 -3 -1 0 2 3 3 2 3 4 4 4 4 5 4 4 3 4 4 3 3 4 5 6 8 8 9 9 8 7
-4 -3 -3 -2 -1 -1 -1 -1 0 -0 -1 -1 -1 -2 -3 -4 -4 -4 -5 -5 -5 -4 -4 -3 -4 -5 -6 -7 -7 -8 -8 -8 -9 -10 -10 -10 -9 -8 -6 -5 -4 -2 -1 1 2 4 5 5 4 3 3 3 4 4 4 5 5 4 3 3 3 5 7 8 8 9 10 10 9
-3 -3 -3 -4 -2 -2 -2 -2 -1 -1 -1 -0 -1 -2 -3 -3 -3 -4 -4 -4 -4 -5 -5 -4 -5 -5 -6 -7 -8 -9 -9 -9 -10 -10 -10 -10 -10 -9 -7 -6 -5 -4 -3 -2 -0 0 2 3 3 3 3 4 3 3 3 3 3 4 4 4 3 4 4 3 3 4 6 6 5
-4 -4 -3 -3 -3 -3 -3 -2 -2 -2 -2 -1 -1 -2 -3 -2 -3 -3 -3 -3 -3 -4 -5 -5 -5 -6 -6 -7 -8 -8 -8 -8 -9 -9 -10 -10 -10 -9 -8 -7 -5 -5 -4 -3 -2 -1 -0 1 2 2 3 3 3 2 2 3 3 4 4 4 2 3 3 2 1 2 2 1 0
-4 -4 -4 -3 -3 -3 -3 -3 -2 -2 -2 -2 -1 -1 -2 -3 -3 -3 -3 -3 -3 -3 -4 -5 -6 -6 -7 -7 -7 -7 -7 -7 -7 -8 -8 -8 -9 -9 -8 -7 -6 -5 -4 -3 -2 -1 -1 -0 1 1 1 2 2 1 1 1 2 2 2 3 2 2 2 1 1 -0 -1 -1 -1
-3 -3 -3 -4 -4 -3 -2 -2 -2 -1 -1 -2 -2 -2 -2 -3 -3 -2 -2 -2 -3 -3 -4 -5 -5 -6 -6 -6 -6 -6 -6 -6 -6 -6 -7 -7 -7 -6 -6 -5 -4 -4 -3 -2 -1 -1 -0 1 1 1 1 1 1 1 0 0 1 1 0 1 1 1 0 0 1 0 -0 -0 0
-1 -2 -2 -2 -3 -2 -1 -1 -1 -1 -0 -1 -2 -2 -2 -2 -2 -2 -2 -2 -2 -3 -3 -4 -4 -4 -5 -4 -5 -5 -5 -5 -5 -5 -5 -5 -5 -5 -4 -4 -3 -2 -2 -1 -1 0 1 1 2 2 1 1 1 1 0 0 1 1 1 1 2 2 2 2 2 1 1 -0 0
-1 -1 -1 -1 -1 -1 -1 0 -0 -0 -0 -0 -1 -2 -2 -1 -1 -2 -2 -2 -3 -3 -3 -3 -3 -3 -3 -3 -3 -4 -4 -4 -4 -4 -4 -5 -5 -4 -4 -3 -2 -1 -0 -0 0 1 1 2 2 2 2 2 2 2 2 2 2 2 2 2 3 4 3 2 2 1 0 -0 -0
-0 -1 -1 -1 0 1 1 1 1 1 0 -0 -0 -1 -1 -1 -1 -1 -2 -2 -3 -3 -3 -3 -2 -2 -2 -3 -2 -2 -3 -3 -3 -4 -4 -5 -5 -4 -3 -2 -1 -0 0 1 1 1 2 2 2 2 3 3 3 3 3 3 3 3 3 2 3 3 2 2 1 1 -0 -0 -1
-0 -1 -1 -0 1 1 2 2 1 1 1 1 1 1 1 -0 -1 -1 -2 -2 -3 -3 -2 -2 -2 -2 -2 -2 -2 -2 -2 -3 -3 -4 -5 -5 -5 -4 -3 -2 -1 -0 0 1 1 1 1 2 2 2 3 3 3 3 3 3 2 2 2 2 1 1 1 1 1 0 -0 -1 -1
-1 -1 -1 0 1 2 2 1 1 1 1 2 2 2 1 0 -1 -2 -3 -3 -2 -2 -2 -2 -2 -2 -1 -1 -2 -2 -2 -3 -4 -4 -4 -4 -4 -3 -2 -1 -0 0 0 0 0 1 0 0 0 1 1 1 1 1 1 0 -0 -1 -1 -1 -1 -1 -1 -1 -1 -1 -1 -2 -2
-1 -1 -0 1 1 2 1 1 1 1 1 1 1 1 1 -1 -2 -2 -3 -3 -3 -2 -2 -2 -2 -2 -2 -1 -2 -3 -4 -3 -3 -4 -4 -4 -3 -2 -2 -1 -0 0 0 0 -0 -0 -1 -1 -1 -1 -1 -1 -2 -2 -2 -3 -3 -3 -4 -4 -3 -3 -2 -2 -2 -1 -1 -1 -0
-1 -1 -0 1 1 1 1 0 1 1 1 -0 -1 -1 -1 -3 -3 -3 -2 -1 -2 -2 -2 -2 -2 -2 -3 -3 -3 -3 -4 -4 -4 -3 -3 -3 -2 -2 -1 -0 -0 0 0 1 1 0 0 0 -0 -0 -0 -0 -1 -1 -1 -1 -2 -2 -2 -2 -1 -1 -1 -1 -0 0 0 0 1
-1 -1 -0 -0 -0 -0 -0 -1 -1 -1 -1 -2 -3 -3 -4 -4 -4 -4 -3 -1 -2 -2 -3 -2 -2 -2 -3 -4 -4 -4 -3 -4 -4 -3 -3 -3 -2 -1 -1 -0 -0 0 1 1 2 2 2 2 2 2 2 3 2 2 2 2 2 2 2 2 1 1 1 1 1 1 1 1 1
0 0 0 -0 -1 -2 -2 -2 -3 -3 -3 -4 -5 -5 -5 -4 -3 -3 -4 -4 -3 -3 -2 -3 -3 -3 -3 -4 -5 -4 -4 -4 -4 -3 -2 -2 -1 -1 -0 -0 0 0 1 1 2 2 3 3 3 3 3 3 3 3 3 3 3 2 2 2 2 1 1 1 1 2 2 2 1
2 1 -0 -0 -1 -2 -3 -3 -4 -4 -5 -5 -5 -5 -4 -3 -3 -3 -3 -4 -4 -3 -2 -3 -3 -4 -5 -5 -5 -5 -4 -3 -3 -2 -2 -1 -1 -0 -0 -0 0 0 0 1 1 1 2 2 2 2 2 2 1 1 0 0 0 0 0 0 1 1 1 1 1 2 2 2 1
2 1 -0 -1 -1 -2 -2 -3 -4 -5 -5 -5 -4 -3 -3 -3 -2 -2 -2 -3 -3 -2 -2 -2 -3 -4 -4 -5 -4 -4 -3 -2 -2 -1 -1 0 0 0 0 0 0 0 0 -0 -0 -0 0 0 0 -0 -0 -0 -1 -1 -2 -2 -2 -2 -2 -1 -1 -0 1 1 2 2 2 2 1
2 1 1 -1 -1 -1 -2 -3 -3 -4 -4 -3 -2 -2 -2 -2 -2 -2 -2 -2 -2 -1 -1 -1 -2 -3 -3 -3 -3 -3 -2 -1 -1 -0 0 1 1 1 1 1 1 1 0 0 -0 -0 -1 -1 -1 -1 -1 -2 -2 -3 -3 -3 -3 -3 -3 -2 -1 -0 1 2 2 2 2 2 2
2 2 1 1 0 -0 -1 -2 -2 -2 -2 -2 -2 -2 -2 -3 -3 -3 -3 -2 -2 -1 -0 -1 -1 -2 -2 -2 -2 -2 -1 -1 -0 -0 0 1 1 1 1 1 1 1 0 0 0 0 -0 -1 -1 -2 -2 -2 -2 -3 -3 -3 -3 -3 -2 -2 -0 1 3 4 4 4 3 3 2
2 2 2 2 2 1 1 -0 -0 0 0 -0 -1 -2 -3 -3 -3 -3 -3 -2 -1 -1 -1 -1 -1 -1 -2 -1 -1 -0 -0 -0 -0 -0 -0 0 0 -0 -0 -0 -0 -0 -0 -0 0 -0 -0 -0 -0 -1 -1 -0 0 1 1 1 2 2 2 3 4 5 6 7 7 6 5 3 2
1 2 2 3 3 2 2 2 2 2 1 -0 -2 -3 -4 -4 -3 -3 -2 -2 -2 -1 -1 -1 -1 -1 -1 -1 -0 0 0 -0 -0 -0 -0 -0 -0 -1 -1 -1 -1 -1 -1 -1 -1 -1 -1 -0 1 2 3 4 5 6 7 8 8 7 7 7 7 7 7 7 7 7 6 4 3
2 2 2 3 3 3 2 2 2 2 0 -2 -4 -5 -5 -4 -3 -3 -2 -2 -1 -1 -1 -1 -1 -1 -0 0 0 -0 -1 -1 -1 -1 -0 -0 -1 -1 -1 -1 -2 -2 -2 -2 -2 -1 -0 1 3 4 6 7 7 8 8 7 7 7 6 5 5 4 4 4 4 5 5 4 3
1 2 3 3 4 3 3 2 1 -0 -2 -4 -5 -5 -5 -5 -4 -3 -2 -1 -1 -0 0 0 0 0 1 1 1 -0 -1 -2 -1 -1 -0 -0 -0 -1 -1 -1 -2 -2 -2 -1 0 2 3 5 5 5 4 3 3 3 3 2 2 2 2 2 1 1 1 2 2 3 4 3 2
1 2 3 4 4 4 3 1 -1 -3 -5 -5 -5 -5 -5 -6 -5 -4 -3 -1 -0 0 1 1 1 2 2 2 1 -0 -1 -1 -1 -1 -1 -0 -0 -0 -0 -0 -0 0 1 3 4 5 5 5 4 2 1 -1 -2 -2 -1 -1 -1 -0 0 1 0 0 1 1 2 2 2 1 1
0 1 2 3 3 3 1 -0 -3 -5 -5 -5 -5 -6 -6 -6 -5 -4 -3 -2 -1 0 1 2 2 3 2 2 1 0 -0 -0 0 0 1 1 1 1 2 2 3 4 4 5 5 4 3 2 0 -1 -2 -3 -3 -3 -3 -2 -1 -0 -0 0 1 1 1 1 1 1 0 -1 -1
-0 -0 -0 0 -0 -2 -3 -5 -5 -6 -6 -6 -6 -6 -6 -5 -4 -3 -2 -2 -1 0 2 2 3 3 2 1 0 0 0 1 1 2 2 3 3 4 4 5 5 4 4 3 2 1 -0 -1 -2 -2 -3 -3 -3 -3 -2 -1 -0 -0 -0 0 1 2 2 1 1 -0 -2 -3 -3
-2 -2 -2 -3 -4 -5 -7 -8 -7 -7 -7 -7 -7 -6 -5 -3 -3 -2 -1 -0 -0 -0 1 2 2 2 1 0 0 0 1 2 2 3 4 4 4 5 5 5 4 2 1 0 -1 -1 -2 -2 -3 -3 -3 -3 -2 -2 -1 -1 -0 -0 0 1 1 2 1 1 -0 -1 -3 -3 -3
-2 -2 -3 -4 -5 -6 -7 -7 -7 -7 -7 -6 -6 -5 -4 -2 -1 -0 -0 -0 -0 -0 -0 1 1 0 -1 -1 -1 0 1 2 3 3 3 3 3 3 3 2 1 -0 -1 -1 -2 -2 -2 -3 -3 -3 -3 -2 -1 -1 -1 -0 -0 -0 0 1 2 2 1 0 -1 -2 -3 -4 -3
-1 -1 -1 -2 -4 -5 -5 -5 -5 -5 -5 -5 -4 -3 -2 -2 -1 -1 -0 -0 0 0 1 0 -0 -1 -1 -2 -1 0 1 2 2 3 2 2 2 2 1 1 -0 -1 -1 -2 -2 -2 -2 -2 -2 -2 -2 -2 -1 -1 -1 -1 -0 0 1 1 2 2 1 -0 -2 -2 -3 -3 -3
0 1 1 0 -1 -2 -3 -3 -3 -3 -3 -3 -3 -3 -2 -1 -1 -1 0 1 1 1 1 0 -0 -1 -1 -0 0 1 2 2 2 2 2 2 2 1 1 -0 -1 -1 -1 -1 -2 -2 -2 -2 -2 -2 -2 -1 -1 -1 -1 -1 -0 1 2 2 2 1 0 -1 -2 -2 -3 -3 -3
1 1 1 1 1 0 -1 -1 -1 -1 -2 -2 -3 -2 -1 -0 0 1 1 1 2 2 1 -0 -0 -1 -1 -0 1 2 2 2 2 2 2 1 1 1 1 0 -1 -1 -1 -1 -1 -1 -1 -2 -2 -2 -1 -1 -1 -1 -0 -0 1 2 2 3 2 1 0 -1 -2 -2 -2 -2 -3
2 2 2 2 1 1 0 0 -0 -1 -1 -1 -1 -1 -0 1 1 2 2 2 2 2 1 -0 -0 -0 0 0 0 1 1 2 2 2 1 1 2 2 1 1 -0 -1 -2 -1 -2 -1 -1 -1 -2 -2 -2 -1 -1 -1 -0 1 2 3 3 3 2 1 0 -1 -1 -1 -2 -2 -2
2 3 3 2 2 1 1 1 1 -0 -1 -1 1 1 2 2 1 1 1 2 2 2 1 1 0 0 0 1 0 0 0 1 2 1 1 1 1 2 1 1 0 -1 -1 -2 -2 -1 -1 -1 -1 -2 -2 -2 -1 -0 1 2 3 3 3 3 2 1 0 -0 -0 -1 -1 -2 -2
1 2 2 2 1 1 1 1 0 -0 -0 0 1 2 2 1 1 0 0 1 2 1 1 1 1 0 0 1 1 0 -0 -0 1 1 1 0 0 1 1 1 0 -0 -1 -1 -1 -1 -1 -1 -1 -2 -2 -1 -1 -0 1 3 4 4 3 2 1 1 1 0 -0 -0 -1 -1 -2
-0 0 0 1 0 -0 -0 -1 -1 -0 0 1 1 1 1 1 0 0 0 1 2 2 1 1 1 0 0 1 1 0 -0 -1 -0 1 1 0 -0 0 1 2 1 0 -0 -0 -1 -1 -0 -0 -1 -2 -2 -2 -1 0 2 3 4 4 3 2 1 1 1 1 0 -0 -0 -1 -1
-0 -0 0 0 -0 -1 -1 -1 -1 -0 0 1 1 1 1 1 1 1 1 1 1 2 1 1 1 0 0 1 1 1 -0 -1 -1 0 1 1 -0 -0 1 1 1 1 0 0 0 -0 -0 -0 -1 -2 -2 -2 -1 0 2 3 3 3 2 1 1 1 1 2 1 0 -1 -1 -1
1 1 0 -0 -0 -1 -1 -2 -1 -0 0 1 1 1 1 2 2 2 1 2 1 1 1 1 1 0 0 1 1 1 1 -0 -0 0 1 1 0 -0 0 1 1 1 1 1 1 0 -1 -1 -1 -2 -2 -2 -1 0 2 2 2 1 1 1 1 1 2 2 1 0 -1 -1 -1
Height
5659 5657 5654 5651 5647 5645 5642 5639 5636 5633 5630 5627 5625 5622 5618 5616 5613 5611 5608 5607 5604 5602 5599 5597 5596 5594 5592 5589 5587 5585 5583 5581 5578 5576 5574 5572 5570 5567 5565 5563 5561 5559 5557 5556 5554 5552 5551 5549 5548 5547 5547 5547 5547 5545 5542 5540 5537 5535 5532 5531 5529 5528 5527 5526 5524 5523 5522 5521 5519
5655 5652 5649 5647 5643 5640 5637 5634 5631 5628 5625 5622 5620 5617 5614 5611 5608 5606 5603 5601 5599 5597 5594 5592 5590 5588 5587 5584 5582 5581 5578 5576 5574 5572 5569 5567 5565 5563 5561 5559 5557 5554 5553 5551 5549 5547 5546 5545 5545 5544 5543 5542 5539 5536 5533 5531 5529 5528 5527 5525 5524 5523 5522 5521 5520 5518 5517 5516 5515
5651 5648 5645 5642 5639 5636 5633 5630 5627 5624 5621 5618 5615 5612 5609 5606 5603 5601 5599 5596 5594 5592 5589 5587 5584 5583 5581 5579 5577 5575 5573 5571 5568 5566 5564 5562 5560 5558 5556 5554 5552 5550 5547 5546 5544 5543 5542 5542 5541 5539 5537 5534 5531 5529 5527 5525 5524 5522 5521 5520 5519 5518 5517 5516 5514 5513 5513 5512 5511
5647 5644 5641 5638 5635 5632 5628 5626 5622 5619 5616 5613 5610 5607 5604 5601 5599 5596 5594 5592 5589 5587 5585 5582 5579 5577 5575 5573 5571 5569 5567 5564 5562 5560 5557 5555 5553 5551 5549 5547 5546 5543 5542 5540 5538 5537 5537 5535 5533 5531 5529 5527 5525 5523 5521 5520 5518 5517 5516 5514 5513 5512 5511 5510 5509 5509 5508 5507 5507
5642 5639 5637 5633 5631 5627 5624 5621 5618 5615 5612 5609 5606 5602 5599 5597 5594 5592 5589 5587 5585 5582 5580 5577 5575 5572 5570 5567 5565 5563 5561 5558 5556 5554 5551 5549 5547 5545 5543 5541 5539 5537 5535 5534 5532 5531 5529 5527 5525 5524 5522 5521 5519 5517 5516 5515 5513 5512 5510 5509 5508 5507 5507 5506 5505 5504 5503 5502 5502
5637 5634 5631 5628 5626 5623 5619 5616 5613 5610 5607 5604 5602 5598 5595 5592 5590 5587 5585 5582 5580 5578 5575 5573 5570 5567 5565 5562 5560 5557 5555 5553 5550 5548 5545 5543 5541 5538 5537 5534 5532 5531 5529 5527 5526 5524 5522 5521 5519 5517 5516 5515 5513 5512 5511 5509 5507 5506 5505 5504 5502 5502 5502 5501 5500 5499 5498 5497 5496
5633 5630 5627 5624 5621 5618 5615 5612 5609 5606 5603 5600 5597 5595 5591 5588 5586 5583 5581 5578 5576 5573 5571 5568 5566 5563 5560 5557 5555 5552 5550 5547 5545 5542 5540 5537 5535 5532 5530 5528 5526 5524 5522 5520 5519 5517 5516 5514 5513 5511 5510 5509 5507 5506 5504 5503 5502 5501 5500 5499 5498 5497 5496 5495 5494 5493 5492 5491 5490
5628 5625 5622 5619 5617 5613 5610 5607 5604 5602 5599 5596 5593 5591 5587 5585 5582 5579 5576 5574 5571 5569 5566 5563 5561 5558 5556 5553 5550 5547 5545 5542 5540 5537 5535 5532 5529 5527 5525 5522 5520 5518 5516 5514 5512 5511 5509 5508 5507 5505 5504 5502 5501 5499 5498 5497 5496 5496 5495 5494 5493 5492 5491 5489 5488 5487 5486 5485 5484
5623 5621 5618 5615 5612 5609 5606 5603 5600 5597 5595 5592 5589 5587 5584 5581 5578 5575 5572 5570 5567 5564 5562 5559 5556 5553 5551 5548 5546 5543 5541 5538 5535 5532 5530 5527 5524 5522 5519 5517 5515 5513 5511 5509 5507 5505 5503 5502 5500 5499 5498 5497 5496 5494 5493 5492 5492 5491 5490 5489 5487 5486 5485 5484 5483 5482 5480 5480 5479
5619 5616 5613 5611 5607 5604 5602 5599 5596 5593 5591 5588 5585 5582 5580 5577 5574 5571 5568 5566 5563 5560 5557 5555 5552 5549 5547 5544 5541 5539 5536 5534 5531 5528 5525 5522 5520 5517 5514 5512 5510 5508 5506 5504 5502 5500 5498 5497 5496 5494 5493 5492 5491 5489 5488 5487 5487 5486 5484 5483 5482 5481 5480 5479 5477 5476 5475 5474 5474
5615 5612 5609 5606 5603 5600 5597 5594 5592 5589 5587 5584 5581 5578 5576 5573 5570 5567 5564 5562 5559 5556 5553 5550 5547 5545 5542 5539 5537 5535 5532 5529 5527 5524 5521 5518 5515 5512 5510 5508 5506 5503 5502 5499 5498 5496 5494 5493 5491 5490 5488 5487 5486 5485 5484 5483 5482 5481 5480 5479 5478 5477 5475 5474 5473 5472 5471 5469 5469
5611 5608 5605 5602 5599 5596 5593 5590 5588 5585 5582 5580 5577 5574 5571 5568 5566 5563 5560 5557 5554 5552 5549 5546 5543 5541 5538 5535 5533 5530 5527 5525 5522 5519 5516 5513 5511 5508 5506 5503 5501 5499 5497 5495 5494 5492 5490 5489 5487 5486 5484 5483 5482 5481 5480 5479 5478 5477 5476 5474 5473 5472 5471 5470 5468 5467 5466 5465 5464
5607 5604 5601 5597 5595 5592 5589 5587 5584 5581 5578 5576 5573 5570 5567 5564 5561 5559 5556 5553 5550 5547 5544 5542 5539 5536 5534 5531 5528 5526 5523 5520 5517 5514 5512 5509 5506 5503 5501 5499 5497 5495 5493 5492 5490 5488 5487 5485 5484 5482 5481 5480 5478 5477 5476 5475 5474 5472 5472 5470 5469 5468 5467 5465 5464 5462 5461 5460 5459
5602 5599 5597 5593 5591 5588 5585 5582 5580 5577 5574 5572 5569 5566 5563 5560 5557 5554 5551 5548 5546 5543 5540 5537 5535 5532 5529 5527 5524 5521 5518 5515 5512 5509 5507 5504 5501 5498 5496 5494 5492 5491 5489 5487 5486 5485 5483 5482 5480 5479 5477 5476 5475 5473 5472 5471 5470 5468 5467 5466 5465 5464 5462 5461 5460 5458 5457 5456 5455
5598 5595 5592 5589 5586 5583 5581 5578 5576 5573 5571 5568 5565 5562 5559 5555 5552 5549 5547 5544 5541 5538 5536 5533 5530 5527 5525 5522 5519 5516 5513 5510 5507 5504 5502 5498 5496 5493 5492 5489 5488 5486 5485 5484 5482 5481 5479 5478 5477 5475 5474 5472 5471 5470 5468 5467 5466 5464 5463 5462 5461 5459 5458 5457 5455 5454 5452 5451 5450
5593 5590 5587 5585 5582 5579 5576 5574 5572 5569 5566 5563 5560 5557 5554 5551 5548 5545 5542 5539 5537 5534 5531 5529 5526 5523 5520 5517 5514 5512 5508 5505 5502 5499 5497 5494 5491 5489 5487 5485 5483 5482 5481 5479 5478 5477 5475 5474 5473 5471 5470 5468 5467 5466 5464 5463 5462 5460 5459 5457 5456 5455 5453 5452 5451 5449 5448 5447 5445
5589 5586 5583 5580 5577 5575 5572 5569 5567 5564 5561 5558 5555 5552 5550 5547 5544 5541 5538 5535 5532 5530 5527 5524 5521 5518 5515 5512 5509 5507 5503 5500 5497 5494 5492 5489 5487 5485 5482 5481 5479 5477 5476 5475 5474 5472 5471 5470 5468 5467 5466 5464 5463 5461 5460 5458 5457 5456 5454 5453 5452 5450 5449 5447 5446 5444 5443 5441 5440
5584 5581 5578 5576 5573 5570 5567 5564 5562 5559 5556 5553 5551 5548 5545 5542 5539 5536 5533 5531 5528 5526 5522 5519 5516 5513 5511 5507 5504 5501 5498 5496 5492 5489 5487 5485 5482 5480 5478 5476 5475 5473 5472 5470 5469 5468 5467 5465 5464 5462 5461 5459 5458 5457 5455 5454 5452 5451 5450 5448 5447 5445 5444 5442 5441 5439 5437 5436 5434
5580 5577 5574 5571 5568 5565 5562 5559 5557 5554 5551 5548 5546 5543 5540 5537 5535 5532 5529 5526 5523 5520 5517 5514 5511 5508 5505 5502 5500 5497 5493 5491 5488 5485 5482 5480 5478 5476 5474 5472 5470 5469 5467 5466 5465 5463 5462 5461 5459 5457 5456 5455 5453 5452 5450 5449 5447 5446 5445 5443 5442 5440 5438 5437 5435 5433 5432 5430 5429
5575 5572 5569 5566 5563 5560 5557 5554 5552 5549 5546 5544 5541 5538 5536 5533 5530 5527 5524 5521 5518 5515 5512 5509 5506 5503 5500 5497 5495 5492 5489 5486 5484 5481 5478 5476 5474 5472 5470 5468 5466 5464 5463 5461 5460 5459 5457 5456 5454 5453 5452 5450 5448 5447 5446 5444 5442 5441 5439 5438 5436 5435 5433 5432 5430 5428 5427 5425 5423
5571 5567 5564 5561 5558 5555 5552 5549 5547 5544 5542 5539 5537 5534 5531 5528 5525 5522 5519 5516 5513 5510 5507 5504 5501 5498 5495 5492 5490 5487 5484 5482 5479 5477 5474 5472 5470 5468 5466 5464 5462 5460 5458 5457 5456 5454 5453 5451 5450 5448 5447 5445 5444 5442 5441 5439 5438 5436 5435 5433 5432 5430 5428 5427 5425 5423 5422 5420 5418
5566 5562 5559 5557 5554 5551 5548 5545 5542 5540 5537 5534 5532 5529 5526 5523 5520 5517 5514 5511 5508 5505 5502 5499 5496 5493 5491 5488 5485 5483 5480 5477 5475 5473 5471 5468 5466 5464 5462 5460 5458 5456 5454 5452 5451 5450 5448 5447 5445 5444 5442 5441 5439 5437 5436 5435 5433 5432 5430 5429 5427 5425 5424 5422 5420 5419 5417 5415 5413
5562 5558 5555 5552 5549 5546 5543 5541 5538 5535 5532 5530 5527 5524 5521 5518 5516 5512 5510 5507 5504 5501 5498 5495 5492 5489 5486 5483 5481 5478 5476 5473 5471 5469 5467 5464 5462 5460 5458 5456 5454 5452 5450 5448 5447 5445 5444 5442 5441 5439 5437 5436 5434 5433 5432 5430 5429 5427 5426 5424 5423 5421 5420 5418 5416 5414 5412 5411 5409
5557 5554 5551 5548 5545 5542 5540 5537 5534 5531 5528 5525 5522 5519 5517 5514 5511 5508 5505 5502 5499 5496 5493 5490 5487 5484 5482 5479 5477 5474 5472 5469 5467 5464 5462 5460 5458 5456 5453 5452 5450 5448 5446 5444 5442 5441 5439 5438 5436 5435 5433 5432 5430 5429 5427 5426 5424 5423 5422 5420 5419 5417 5416 5414 5412 5410 5408 5406 5404
5553 5550 5547 5544 5542 5538 5536 5533 5530 5527 5524 5521 5518 5515 5512 5510 5507 5503 5500 5497 5494 5492 5489 5486 5482 5480 5477 5475 5472 5469 5467 5465 5462 5460 5457 5455 5453 5451 5449 5447 5445 5443 5442 5440 5438 5437 5435 5433 5432 5430 5429 5428 5427 5425 5423 5422 5421 5419 5417 5416 5414 5412 5411 5409 5407 5405 5402 5400 5398
5549 5547 5543 5541 5537 5535 5532 5529 5526 5522 5520 5517 5514 5511 5508 5505 5502 5499 5496 5493 5490 5487 5484 5481 5478 5475 5472 5470 5467 5465 5462 5460 5458 5456 5453 5451 5449 5447 5445 5443 5441 5439 5437 5436 5434 5432 5431 5429 5427 5426 5425 5423 5422 5421 5419 5417 5416 5414 5412 5410 5408 5407 5405 5403 5401 5399 5397 5395 5393
5545 5542 5540 5537 5533 5530 5527 5524 5521 5518 5516 5513 5510 5507 5504 5501 5498 5495 5492 5489 5486 5483 5480 5477 5474 5471 5468 5466 5463 5460 5457 5455 5453 5451 5449 5447 5445 5443 5441 5439 5437 5435 5433 5431 5430 5428 5427 5425 5423 5422 5420 5418 5417 5415 5414 5412 5410 5408 5406 5404 5402 5401 5399 5397 5396 5394 5392 5390 5387
5541 5538 5535 5532 5529 5526 5523 5520 5517 5514 5512 5509 5506 5503 5500 5497 5494 5491 5488 5485 5482 5479 5476 5472 5470 5467 5464 5461 5458 5456 5453 5451 5448 5447 5445 5443 5441 5439 5437 5435 5433 5431 5429 5427 5426 5424 5422 5421 5419 5417 5415 5413 5412 5410 5408 5407 5405 5403 5401 5399 5397 5395 5394 5392 5390 5388 5387 5384 5382
5536 5533 5530 5528 5525 5522 5519 5516 5513 5510 5507 5504 5501 5498 5495 5492 5489 5486 5483 5481 5477 5475 5472 5468 5465 5462 5460 5457 5454 5452 5449 5447 5445 5442 5441 5439 5437 5435 5433 5431 5429 5427 5426 5424 5422 5420 5418 5416 5414 5412 5410 5408 5406 5405 5403 5402 5400 5398 5396 5394 5392 5391 5389 5387 5385 5383 5381 5379 5377
5531 5528 5525 5522 5520 5517 5514 5511 5508 5505 5502 5499 5496 5493 5490 5487 5484 5481 5478 5476 5473 5470 5467 5464 5461 5458 5456 5453 5450 5447 5445 5443 5441 5439 5437 5435 5433 5431 5429 5427 5425 5423 5421 5419 5417 5415 5413 5411 5409 5407 5405 5403 5402 5400 5398 5397 5395 5393 5391 5389 5387 5386 5384 5382 5380 5378 5376 5374 5372
5526 5523 5520 5517 5514 5512 5509 5506 5503 5500 5497 5494 5491 5488 5485 5482 5479 5476 5473 5471 5468 5465 5462 5460 5457 5454 5451 5448 5446 5443 5441 5439 5437 5435 5433 5432 5429 5427 5426 5423 5421 5419 5417 5415 5412 5411 5408 5406 5404 5402 5401 5399 5397 5395 5393 5392 5390 5388 5386 5385 5383 5381 5379 5377 5375 5372 5371 5369 5367
5521 5518 5515 5512 5509 5506 5503 5500 5497 5494 5491 5488 5485 5482 5479 5477 5473 5471 5468 5465 5462 5460 5457 5455 5452 5449 5447 5444 5442 5439 5437 5435 5433 5431 5429 5427 5426 5423 5421 5419 5417 5415 5412 5410 5408 5406 5404 5402 5400 5398 5396 5394 5392 5390 5389 5387 5385 5383 5382 5380 5378 5376 5374 5372 5370 5367 5366 5363 5362
5516 5513 5510 5507 5504 5501 5498 5495 5492 5489 5486 5483 5480 5477 5474 5471 5468 5465 5462 5460 5457 5455 5452 5450 5447 5444 5442 5440 5437 5435 5433 5431 5429 5427 5425 5423 5422 5419 5417 5415 5412 5410 5408 5406 5404 5402 5400 5397 5395 5393 5391 5389 5387 5386 5384 5382 5381 5379 5377 5375 5373 5371 5369 5367 5365 5362 5361 5359 5357
5512 5509 5505 5502 5499 5496 5492 5490 5487 5484 5481 5478 5475 5472 5469 5466 5463 5460 5457 5454 5452 5450 5447 5445 5442 5440 5437 5435 5433 5431 5429 5427 5425 5423 5421 5419 5417 5415 5413 5411 5408 5406 5404 5402 5399 5397 5395 5393 5391 5388 5387 5385 5383 5381 5379 5377 5376 5374 5372 5371 5369 5367 5364 5362 5360 5358 5356 5354 5352
5507 5504 5501 5497 5494 5491 5487 5485 5482 5479 5476 5473 5470 5466 5463 5460 5457 5455 5452 5449 5447 5444 5442 5439 5437 5435 5433 5431 5429 5427 5425 5423 5421 5419 5417 5415 5413 5411 5409 5406 5404 5402 5399 5397 5395 5392 5390 5388 5386 5384 5382 5380 5378 5377 5375 5373 5372 5370 5368 5366 5364 5362 5360 5357 5355 5353 5351 5350 5348
5502 5499 5496 5492 5489 5486 5483 5480 5477 5474 5471 5468 5465 5461 5458 5455 5452 5449 5447 5444 5442 5439 5437 5435 5432 5431 5428 5427 5425 5423 5421 5419 5417 5415 5413 5411 5409 5407 5404 5402 5400 5397 5395 5392 5390 5388 5386 5383 5381 5379 5377 5376 5374 5372 5371 5369 5367 5366 5364 5362 5360 5358 5355 5353 5351 5349 5347 5346 5344
5497 5494 5491 5487 5484 5481 5478 5475 5472 5469 5466 5462 5459 5456 5453 5450 5447 5444 5441 5439 5437 5435 5432 5431 5428 5427 5424 5422 5421 5418 5416 5415 5412 5411 5408 5407 5405 5402 5400 5398 5395 5392 5390 5387 5385 5383 5381 5379 5377 5375 5373 5371 5370 5368 5367 5365 5363 5362 5360 5358 5356 5353 5351 5349 5347 5345 5344 5342 5341
5491 5488 5485 5482 5479 5476 5473 5470 5467 5463 5460 5457 5453 5450 5447 5444 5442 5439 5436 5434 5432 5430 5428 5426 5424 5422 5420 5418 5416 5414 5412 5410 5408 5406 5404 5402 5400 5398 5396 5393 5391 5388 5386 5383 5381 5378 5377 5374 5372 5370 5368 5367 5365 5364 5362 5361 5359 5358 5356 5354 5352 5349 5347 5345 5343 5342 5341 5340 5339
5485 5482 5480 5477 5473 5470 5467 5464 5461 5457 5454 5451 5447 5444 5441 5439 5436 5434 5432 5430 5428 5426 5424 5422 5420 5418 5416 5414 5412 5410 5408 5406 5404 5402 5400 5397 5395 5393 5391 5389 5387 5384 5381 5379 5377 5374 5372 5370 5368 5366 5364 5363 5361 5360 5358 5357 5355 5354 5352 5349 5347 5345 5344 5342 5340 5339 5338 5337 5337
5480 5477 5474 5471 5468 5464 5461 5457 5454 5451 5448 5445 5442 5438 5436 5433 5431 5429 5427 5425 5423 5422 5420 5417 5416 5414 5412 5410 5408 5406 5404 5402 5399 5397 5395 5393 5391 5389 5387 5384 5382 5380 5377 5375 5372 5370 5368 5366 5364 5362 5360 5359 5357 5356 5354 5353 5351 5350 5347 5346 5344 5342 5340 5339 5338 5337 5336 5335 5334
5475 5472 5468 5465 5461 5458 5455 5452 5448 5445 5442 5439 5436 5433 5431 5428 5427 5425 5423 5421 5419 5417 5415 5413 5411 5410 5408 5406 5404 5402 5400 5397 5395 5393 5391 5389 5387 5384 5382 5380 5378 5376 5373 5371 5368 5366 5364 5362 5360 5358 5356 5355 5353 5352 5350 5349 5347 5345 5344 5342 5340 5339 5337 5337 5335 5334 5333 5333 5332